Deering, AK

9:52 PM AKDT on September 24, 2016 (GMT -0800)
Deering (New)

Weather History for PADE - December, 2012

Change the Weather History Date:

Tuesday, December 11, 2012

  Actual Average (PAOT) Record (PAOT)
Temperature  
Mean Temperature -8 °F -  
Max Temperature 1 °F 10 °F 34 °F (1986)
Min Temperature -18 °F -3 °F -35 °F (1975)
Degree Days  
Heating Degree Days 74 62  
Month to date heating degree days 668  
Since 1 July heating degree days 5027  
Cooling Degree Days 0    
Month to date cooling degree days  
Year to date cooling degree days  
Moisture  
Dew Point -13 °F    
Average Humidity 80    
Maximum Humidity 84    
Minimum Humidity 75    
Precipitation  
Precipitation 0.00 in 0.03 in 0.16 in (2011)
Month to date precipitation 0.28  
Year to date precipitation 10.52  
Snow  
Snow 0.00 in 0.40 in 3.50 in (2005)
Month to date snowfall 4.3  
Since 1 July snowfall 21.7  
Snow Depth -    
Sea Level Pressure  
Sea Level Pressure 29.78 in    
Wind  
Wind Speed 5 mph (SW)    
Max Wind Speed 14 mph    
Max Gust Speed -    
Visibility 9 miles    
Events      
T = Trace of Precipitation, MM = Missing Value Source: NWS Daily Summary

Daily Weather History Graph

Daily Weather History Graph

Search for Another Location

Airport or City:

Trip Planner

Search our weather history database for the weather conditions in past years. The results will help you decide how hot, cold, wet, or windy it might be!

Date:

Astronomy

Dec. 11, 2012 Rise Set
Actual Time 12:13 PM AKST 3:16 PM AKST
Civil Twilight 10:35 AM AKST 4:53 PM AKST
Nautical Twilight 9:19 AM AKST 6:09 PM AKST
Astronomical Twilight 8:14 AM AKST 7:14 PM AKST
Moon 9:43 AM AKST (12/11) 2:40 PM AKST (12/11)
Length of Visible Light 6h 17m
Length of Day
3h 03m
Waning Crescent, 3% of the Moon is Illuminated
Dec 11
Waning Crescent
Dec 12
New
Dec 19
First Quarter
Dec 28
Full
Jan 4
Last Quarter

Hourly Weather History & Observations

Time (AKST) Temp. Windchill Dew Point Humidity Pressure Visibility Wind Dir Wind Speed Gust Speed Precip Events Conditions
12:08 AM 1.4 °F -12.5 °F -4.0 °F 78% 29.86 in 10.0 mi WSW 8.1 mph - N/A   Overcast
12:31 AM 1.4 °F -12.5 °F -4.0 °F 78% 29.86 in 10.0 mi WSW 8.1 mph - N/A   Overcast
12:53 AM -0.9 °F -12.7 °F -6.0 °F 79% 29.87 in 10.0 mi SSW 5.8 mph - N/A   Overcast
1:19 AM -2.2 °F -14.2 °F -7.6 °F 78% 29.88 in 9.0 mi SSW 5.8 mph - N/A   Mostly Cloudy
1:48 AM -7.6 °F -22.1 °F -13.0 °F 77% 29.89 in 10.0 mi SSW 6.9 mph - N/A   Mostly Cloudy
1:53 AM -8.0 °F -23.9 °F -13.0 °F 79% 29.89 in 10.0 mi SSW 8.1 mph - N/A   Mostly Cloudy
2:01 AM -5.8 °F -18.4 °F -11.2 °F 77% 29.89 in 10.0 mi SSW 5.8 mph - N/A   Mostly Cloudy
2:53 AM 1.0 °F -14.9 °F -5.1 °F 75% 29.89 in 10.0 mi WSW 10.4 mph - N/A   Overcast
3:53 AM -0.9 °F -14.1 °F -6.0 °F 79% 29.90 in 7.0 mi SW 6.9 mph - N/A   Overcast
4:53 AM -0.9 °F -12.7 °F -5.1 °F 83% 29.91 in 10.0 mi West 5.8 mph - 0.00 in   Overcast
5:53 AM -2.0 °F -15.4 °F -7.1 °F 79% 29.92 in 10.0 mi SW 6.9 mph - N/A   Overcast
7:53 AM -0.9 °F -12.7 °F -6.0 °F 79% 29.93 in 10.0 mi SSW 5.8 mph - N/A   Overcast
8:53 AM -0.9 °F -8.9 °F -5.1 °F 83% 29.93 in 8.0 mi SSW 3.5 mph - 0.00 in   Overcast
9:53 AM -0.9 °F -11.0 °F -6.0 °F 79% 29.92 in 10.0 mi SW 4.6 mph - N/A   Overcast
10:53 AM -0.9 °F -14.1 °F -6.0 °F 79% 29.92 in 10.0 mi SSW 6.9 mph - N/A   Overcast
11:53 AM -2.9 °F -15.0 °F -7.1 °F 82% 29.91 in 10.0 mi SSW 5.8 mph - N/A   Overcast
12:53 PM -5.1 °F -15.8 °F -9.9 °F 80% 29.90 in 9.0 mi WSW 4.6 mph - N/A   Overcast
1:27 PM -7.6 °F -16.5 °F -11.2 °F 84% 29.87 in 5.0 mi WSW 3.5 mph - N/A   Scattered Clouds
1:53 PM -7.1 °F - -11.0 °F 83% 29.87 in 10.0 mi Calm Calm - N/A   Scattered Clouds
1:56 PM -7.6 °F - -11.2 °F 84% 29.86 in 10.0 mi Calm Calm - N/A   Mostly Cloudy
2:32 PM -5.8 °F - -9.4 °F 84% 29.85 in 10.0 mi Calm Calm - N/A   Mostly Cloudy
2:53 PM -6.0 °F -16.9 °F -11.0 °F 79% 29.86 in 10.0 mi South 4.6 mph - N/A   Scattered Clouds
3:53 PM -11.0 °F - -15.0 °F 83% 29.82 in 10.0 mi Calm Calm - N/A   Clear
4:53 PM -16.1 °F - -20.9 °F 79% 29.78 in 10.0 mi Calm Calm - N/A   Clear
5:03 PM -16.6 °F - -20.2 °F 84% 29.77 in 5.0 mi Calm Calm - N/A   Partly Cloudy
5:53 PM -18.0 °F -34.7 °F -23.1 °F 78% 29.75 in 4.0 mi SSW 6.9 mph - N/A   Haze
6:43 PM -18.4 °F - -22.0 °F 84% 29.70 in 10.0 mi Calm Calm - N/A   Partly Cloudy
6:53 PM -18.0 °F - -22.0 °F 82% 29.70 in 10.0 mi Calm Calm - N/A   Partly Cloudy
7:53 PM -14.1 °F - -18.9 °F 79% 29.66 in 10.0 mi Calm Calm - N/A   Clear
8:53 PM -18.0 °F - -22.0 °F 82% 29.62 in 10.0 mi Calm Calm - N/A   Partly Cloudy
9:08 PM -18.4 °F - -23.8 °F 76% 29.61 in 10.0 mi Calm Calm - N/A   Mostly Cloudy
9:15 PM -18.4 °F - -23.8 °F 76% 29.60 in 10.0 mi Calm Calm - N/A   Mostly Cloudy
9:51 PM -16.6 °F -26.8 °F -20.2 °F 84% 29.57 in 10.0 mi SW 3.5 mph - N/A   Scattered Clouds
9:53 PM -16.1 °F - -20.9 °F 79% 29.57 in 10.0 mi Calm Calm - N/A   Scattered Clouds
10:53 PM -11.0 °F -20.4 °F -16.1 °F 78% 29.52 in 10.0 mi South 3.5 mph - N/A   Overcast
11:22 PM -11.2 °F - -14.8 °F 84% 29.51 in 2.5 mi Calm Calm - N/A   Overcast
11:34 PM -9.4 °F - -14.8 °F 77% 29.50 in 3.0 mi Calm Calm - N/A   Haze
11:53 PM -2.9 °F -22.4 °F -9.0 °F 75% 29.49 in 5.0 mi NE 13.8 mph - N/A   Haze